Voltar ao catálogo

SKYKRAFT-1A

AtivoCiênciaSSO
NORAD 55054·PAYLOAD·🇦🇺 Australia

Lançado Jan 3, 2023 de Cape Canaveral Space Force Station

Loading…

Próximas Passagens (próximas 24 horas)

TLE

AtualizadoSource: Space-Track

Época: Sep 14, 2026, 15:04 UTC

1 55054U 23001AX  26257.62794940  .00004394  00000-0  15359-3 0  9994
2 55054  97.3115 313.6191 0009774 164.3938 195.7607 15.30030123205394

Acompanhe SKYKRAFT-1A em tempo real com AllMySat

Download on the App Store